,,,PA_Meas_PMT16A,,PR_Meas_QMR101_102,,RH_Meas_QMH101,,SR_Meas_QMS101,,TA_Meas_QMH101,,GenWind,,GenWind,
date,time,status,PA,status,PR,status,RH,status,SR,status,TA,status,DirAvg,status,SpdAvg,
2009-10-05, 00:00:04,VALID,1011.72,VALID,0,VALID,93.6671,VALID,0.105969,VALID,24.803,VALID,64,VALID,0.0257812,
2009-10-05, 00:01:04,VALID,1011.72,VALID,0,VALID,93.6824,VALID,0.105969,VALID,24.8049,VALID,64,VALID,0.376172,
2009-10-05, 00:02:04,VALID,1011.74,VALID,0,VALID,93.6519,VALID,0.105969,VALID,24.7835,VALID,52,VALID,0.278125,
2009-10-05, 00:03:04,VALID,1011.72,VALID,0,VALID,93.6595,VALID,0.105969,VALID,24.7835,VALID,52,VALID,0.100391,
2009-10-05, 00:04:04,VALID,1011.75,VALID,0,VALID,93.6671,VALID,0.105969,VALID,24.803,VALID,52,VALID,0,
2009-10-05, 00:05:04,VALID,1011.71,VALID,0,VALID,93.7053,VALID,0.105969,VALID,24.7835,VALID,52,VALID,0.346875,
2009-10-05, 00:06:04,VALID,1011.72,VALID,0,VALID,93.7129,VALID,0.105969,VALID,24.764,VALID,52,VALID,0.298828,
2009-10-05, 00:07:04,VALID,1011.71,VALID,0,VALID,93.69,VALID,0.105969,VALID,24.764,VALID,52,VALID,0.129688,
2009-10-05, 00:08:04,VALID,1011.69,VALID,0,VALID,93.7205,VALID,0.105969,VALID,24.7445,VALID,52,VALID,0,
2009-10-05, 00:09:04,VALID,1011.69,VALID,0,VALID,93.7281,VALID,0.105969,VALID,24.7445,VALID,52,VALID,0,
2009-10-05, 00:10:04,VALID,1011.64,VALID,0,VALID,93.7434,VALID,0.105969,VALID,24.7445,VALID,52,VALID,0,
2009-10-05, 00:11:04,VALID,1011.66,VALID,0,VALID,93.7739,VALID,0.105969,VALID,24.725,VALID,52,VALID,0,
2009-10-05, 00:12:04,VALID,1011.65,VALID,0,VALID,93.7663,VALID,0,VALID,24.7055,VALID,52,VALID,0,
2009-10-05, 00:13:04,VALID,1011.65,VALID,0,VALID,93.7815,VALID,0.105969,VALID,24.7055,VALID,52,VALID,0.0308594,
2009-10-05, 00:14:04,VALID,1011.64,VALID,0,VALID,93.7739,VALID,0.105969,VALID,24.686,VALID,52,VALID,0.0878906,
2009-10-05, 00:15:04,VALID,1011.63,VALID,0,VALID,93.7891,VALID,0.105969,VALID,24.686,VALID,52,VALID,0,
2009-10-05, 00:16:04,VALID,1011.61,VALID,0,VALID,93.812,VALID,0.105969,VALID,24.6666,VALID,52,VALID,0,
2009-10-05, 00:17:04,VALID,1011.63,VALID,0,VALID,93.8273,VALID,0.105969,VALID,24.6471,VALID,52,VALID,0,
2009-10-05, 00:18:04,VALID,1011.62,VALID,0,VALID,93.8502,VALID,0.105969,VALID,24.6666,VALID,52,VALID,0,
2009-10-05, 00:19:04,VALID,1011.58,VALID,0,VALID,93.8578,VALID,0.105969,VALID,24.6666,VALID,52,VALID,0,
2009-10-05, 00:20:04,VALID,1011.56,VALID,0,VALID,93.8807,VALID,0.105969,VALID,24.6471,VALID,52,VALID,0,
2009-10-05, 00:21:04,VALID,1011.51,VALID,0,VALID,93.8883,VALID,0.105969,VALID,24.6471,VALID,52,VALID,0,
2009-10-05, 00:22:04,VALID,1011.51,VALID,0,VALID,93.9188,VALID,0.105969,VALID,24.6471,VALID,52,VALID,0,
2009-10-05, 00:23:04,VALID,1011.48,VALID,0,VALID,93.9188,VALID,0.105969,VALID,24.6666,VALID,52,VALID,0,
2009-10-05, 00:24:04,VALID,1011.46,VALID,0,VALID,93.9264,VALID,0,VALID,24.6489,VALID,52,VALID,0,
2009-10-05, 00:25:04,VALID,1011.43,VALID,0,VALID,93.934,VALID,0,VALID,24.6294,VALID,52,VALID,0,
2009-10-05, 00:26:04,VALID,1011.43,VALID,0,VALID,93.9645,VALID,0,VALID,24.6313,VALID,52,VALID,0,
2009-10-05, 00:27:04,VALID,1011.44,VALID,0,VALID,93.9569,VALID,0,VALID,24.6313,VALID,52,VALID,0.2625,
2009-10-05, 00:28:04,VALID,1011.47,VALID,0,VALID,93.9417,VALID,0,VALID,24.6294,VALID,52,VALID,0.292578,
2009-10-05, 00:29:04,VALID,1011.44,VALID,0,VALID,93.9645,VALID,0,VALID,24.6508,VALID,52,VALID,0.0414063,
2009-10-05, 00:30:04,VALID,1011.45,VALID,0,VALID,93.9645,VALID,0,VALID,24.6294,VALID,52,VALID,0.0121094,
2009-10-05, 00:31:04,VALID,1011.45,VALID,0,VALID,93.9569,VALID,0,VALID,24.6099,VALID,52,VALID,0.308984,
2009-10-05, 00:32:04,VALID,1011.42,VALID,0,VALID,93.9417,VALID,0,VALID,24.6294,VALID,52,VALID,0.028125,
2009-10-05, 00:33:04,VALID,1011.43,VALID,0,VALID,93.9417,VALID,0,VALID,24.6489,VALID,52,VALID,0.105859,
2009-10-05, 00:34:04,VALID,1011.41,VALID,0,VALID,93.9417,VALID,0,VALID,24.6489,VALID,52,VALID,0.425781,
2009-10-05, 00:35:04,VALID,1011.38,VALID,0,VALID,93.9493,VALID,0,VALID,24.6489,VALID,52,VALID,0.267188,
2009-10-05, 00:36:04,VALID,1011.38,VALID,0,VALID,93.9417,VALID,0,VALID,24.6489,VALID,52,VALID,0,
2009-10-05, 00:37:04,VALID,1011.36,VALID,0,VALID,93.9493,VALID,0,VALID,24.6703,VALID,52,VALID,0,
2009-10-05, 00:38:04,VALID,1011.34,VALID,0,VALID,93.934,VALID,0,VALID,24.6684,VALID,52,VALID,0,
2009-10-05, 00:39:04,VALID,1011.3,VALID,0,VALID,93.9188,VALID,0.105969,VALID,24.6471,VALID,52,VALID,0,
2009-10-05, 00:40:04,VALID,1011.29,VALID,0,VALID,93.9188,VALID,0,VALID,24.6471,VALID,52,VALID,0,
2009-10-05, 00:41:04,VALID,1011.28,VALID,0,VALID,93.9112,VALID,0,VALID,24.6879,VALID,52,VALID,0,
2009-10-05, 00:42:04,VALID,1011.28,VALID,0,VALID,93.8959,VALID,0,VALID,24.6471,VALID,52,VALID,0,
2009-10-05, 00:43:04,VALID,1011.28,VALID,0,VALID,93.9035,VALID,0,VALID,24.6879,VALID,52,VALID,0,
2009-10-05, 00:44:04,VALID,1011.29,VALID,0,VALID,93.9035,VALID,0,VALID,24.686,VALID,52,VALID,0,
2009-10-05, 00:45:04,VALID,1011.27,VALID,0,VALID,93.9417,VALID,0.105969,VALID,24.6647,VALID,86,VALID,0.382031,
2009-10-05, 00:46:04,VALID,1011.28,VALID,0,VALID,93.9188,VALID,0,VALID,24.686,VALID,92,VALID,0.721094,
2009-10-05, 00:47:04,VALID,1011.29,VALID,0,VALID,93.9112,VALID,0,VALID,24.686,VALID,92,VALID,0.64375,
2009-10-05, 00:48:04,VALID,1011.27,VALID,0,VALID,93.8502,VALID,0,VALID,24.7074,VALID,92,VALID,0.653906,
2009-10-05, 00:49:04,VALID,1011.28,VALID,0,VALID,93.812,VALID,0,VALID,24.7269,VALID,92,VALID,0.467187,
2009-10-05, 00:50:04,VALID,1011.28,VALID,0,VALID,93.751,VALID,0,VALID,24.725,VALID,92,VALID,0.233594,
2009-10-05, 00:51:04,VALID,1011.31,VALID,0,VALID,93.7129,VALID,0,VALID,24.7445,VALID,92,VALID,0.354297,
2009-10-05, 00:52:04,VALID,1011.29,VALID,0,VALID,93.69,VALID,0,VALID,24.7854,VALID,92,VALID,0.278125,
2009-10-05, 00:53:04,VALID,1011.3,VALID,0,VALID,93.6595,VALID,0,VALID,24.7445,VALID,92,VALID,0.168359,
2009-10-05, 00:54:04,VALID,1011.31,VALID,0,VALID,93.6442,VALID,0.105969,VALID,24.764,VALID,92,VALID,0.286328,
2009-10-05, 00:55:04,VALID,1011.29,VALID,0,VALID,93.629,VALID,0,VALID,24.7445,VALID,92,VALID,0.191797,
2009-10-05, 00:56:04,VALID,1011.28,VALID,0,VALID,93.6061,VALID,0,VALID,24.7445,VALID,92,VALID,0.164844,
2009-10-05, 00:57:04,VALID,1011.27,VALID,0,VALID,93.5604,VALID,0,VALID,24.7445,VALID,92,VALID,0.145313,
2009-10-05, 00:58:04,VALID,1011.27,VALID,0,VALID,93.5451,VALID,0,VALID,24.764,VALID,92,VALID,0,
2009-10-05, 00:59:04,VALID,1011.26,VALID,0,VALID,93.5604,VALID,0.105969,VALID,24.764,VALID,92,VALID,0,
2009-10-05, 01:00:04,VALID,1011.25,VALID,0,VALID,93.5756,VALID,0,VALID,24.7445,VALID,92,VALID,0,
2009-10-05, 01:01:04,VALID,1011.22,VALID,0,VALID,93.5527,VALID,0,VALID,24.7445,VALID,92,VALID,0,
2009-10-05, 01:02:04,VALID,1011.22,VALID,0,VALID,93.5604,VALID,0,VALID,24.7445,VALID,92,VALID,0,
2009-10-05, 01:03:04,VALID,1011.22,VALID,0,VALID,93.568,VALID,0,VALID,24.7445,VALID,92,VALID,0,
2009-10-05, 01:04:04,VALID,1011.19,VALID,0,VALID,93.5909,VALID,0,VALID,24.725,VALID,92,VALID,0.00195313,
2009-10-05, 01:05:04,VALID,1011.21,VALID,0,VALID,93.5375,VALID,0,VALID,24.7055,VALID,92,VALID,0.286328,
2009-10-05, 01:06:04,VALID,1011.21,VALID,0,VALID,93.5222,VALID,0,VALID,24.6666,VALID,92,VALID,0.154297,
2009-10-05, 01:07:04,VALID,1011.2,VALID,0,VALID,93.5604,VALID,0.105969,VALID,24.6879,VALID,92,VALID,0.164063,
2009-10-05, 01:08:04,VALID,1011.17,VALID,0,VALID,93.5604,VALID,0,VALID,24.6471,VALID,92,VALID,0,
2009-10-05, 01:09:04,VALID,1011.13,VALID,0,VALID,93.568,VALID,0.105969,VALID,24.6471,VALID,92,VALID,0,
2009-10-05, 01:10:04,VALID,1011.11,VALID,0,VALID,93.5985,VALID,0.105969,VALID,24.6276,VALID,92,VALID,0,
2009-10-05, 01:11:04,VALID,1011.09,VALID,0,VALID,93.6366,VALID,0,VALID,24.5886,VALID,92,VALID,0,
2009-10-05, 01:12:04,VALID,1011.1,VALID,0,VALID,93.6595,VALID,0,VALID,24.5886,VALID,92,VALID,0,
2009-10-05, 01:13:04,VALID,1011.04,VALID,0,VALID,93.6976,VALID,0,VALID,24.5905,VALID,92,VALID,0,
2009-10-05, 01:14:04,VALID,1011.05,VALID,0,VALID,93.7586,VALID,0,VALID,24.5691,VALID,92,VALID,0,
2009-10-05, 01:15:04,VALID,1010.99,VALID,0,VALID,93.8044,VALID,0.105969,VALID,24.5886,VALID,92,VALID,0,
2009-10-05, 01:16:04,VALID,1010.98,VALID,0,VALID,93.8273,VALID,0.105969,VALID,24.5691,VALID,92,VALID,0,
2009-10-05, 01:17:04,VALID,1010.98,VALID,0,VALID,93.873,VALID,0,VALID,24.5905,VALID,92,VALID,0,
2009-10-05, 01:18:04,VALID,1010.92,VALID,0,VALID,93.8883,VALID,0,VALID,24.5691,VALID,92,VALID,0,
2009-10-05, 01:19:04,VALID,1010.92,VALID,0,VALID,93.9035,VALID,0,VALID,24.5905,VALID,92,VALID,0,
2009-10-05, 01:20:04,VALID,1010.88,VALID,0,VALID,93.9188,VALID,0,VALID,24.5905,VALID,92,VALID,0,
2009-10-05, 01:21:04,VALID,1010.83,VALID,0,VALID,93.9264,VALID,0,VALID,24.571,VALID,92,VALID,0,
2009-10-05, 01:22:04,VALID,1010.83,VALID,0,VALID,93.9569,VALID,0,VALID,24.5496,VALID,92,VALID,0,
2009-10-05, 01:23:04,VALID,1010.83,VALID,0,VALID,93.9645,VALID,0,VALID,24.571,VALID,92,VALID,0,
2009-10-05, 01:24:04,VALID,1010.8,VALID,0,VALID,93.9798,VALID,0,VALID,24.571,VALID,92,VALID,0,
2009-10-05, 01:25:04,VALID,1010.8,VALID,0,VALID,93.9874,VALID,0,VALID,24.5515,VALID,92,VALID,0,
2009-10-05, 01:26:04,VALID,1010.8,VALID,0,VALID,93.9874,VALID,0,VALID,24.5301,VALID,92,VALID,0,
2009-10-05, 01:27:04,VALID,1010.81,VALID,0,VALID,94.0027,VALID,0,VALID,24.5301,VALID,92,VALID,0,
2009-10-05, 01:28:04,VALID,1010.79,VALID,0,VALID,94.0255,VALID,0,VALID,24.5301,VALID,92,VALID,0,
2009-10-05, 01:29:04,VALID,1010.76,VALID,0,VALID,94.0103,VALID,0,VALID,24.571,VALID,92,VALID,0,
2009-10-05, 01:30:04,VALID,1010.75,VALID,0,VALID,94.0027,VALID,0,VALID,24.5496,VALID,85,VALID,0,
2009-10-05, 01:31:04,VALID,1010.74,VALID,0,VALID,94.0408,VALID,0,VALID,24.5496,VALID,80,VALID,0,
2009-10-05, 01:32:04,VALID,1010.74,VALID,0,VALID,94.0484,VALID,0,VALID,24.5496,VALID,80,VALID,0,
2009-10-05, 01:33:04,VALID,1010.72,VALID,0,VALID,94.056,VALID,0.105969,VALID,24.5496,VALID,80,VALID,0,
2009-10-05, 01:34:04,VALID,1010.71,VALID,0,VALID,94.0484,VALID,0.105969,VALID,24.5496,VALID,80,VALID,0,
2009-10-05, 01:35:04,VALID,1010.73,VALID,0,VALID,94.056,VALID,0,VALID,24.571,VALID,80,VALID,0,
2009-10-05, 01:36:04,VALID,1010.73,VALID,0,VALID,94.0332,VALID,0,VALID,24.5301,VALID,80,VALID,0,
2009-10-05, 01:37:04,VALID,1010.73,VALID,0,VALID,94.0332,VALID,0,VALID,24.571,VALID,80,VALID,0,
2009-10-05, 01:38:04,VALID,1010.74,VALID,0,VALID,94.0408,VALID,0,VALID,24.5515,VALID,80,VALID,0,
2009-10-05, 01:39:04,VALID,1010.74,VALID,0,VALID,94.0484,VALID,0.105969,VALID,24.5301,VALID,80,VALID,0,
2009-10-05, 01:40:04,VALID,1010.73,VALID,0,VALID,94.0255,VALID,0.105969,VALID,24.5106,VALID,80,VALID,0,
2009-10-05, 01:41:04,VALID,1010.75,VALID,0,VALID,94.0103,VALID,0.105969,VALID,24.4911,VALID,80,VALID,0,
2009-10-05, 01:42:04,VALID,1010.73,VALID,0,VALID,93.995,VALID,0.105969,VALID,24.4911,VALID,80,VALID,0,
2009-10-05, 01:43:04,VALID,1010.75,VALID,0,VALID,94.0027,VALID,0,VALID,24.4717,VALID,80,VALID,0,
2009-10-05, 01:44:04,VALID,1010.75,VALID,0,VALID,94.0027,VALID,0.105969,VALID,24.4717,VALID,80,VALID,0,
2009-10-05, 01:45:04,VALID,1010.78,VALID,0,VALID,93.995,VALID,0.105969,VALID,24.4522,VALID,80,VALID,0,
2009-10-05, 01:46:04,VALID,1010.78,VALID,0,VALID,94.0179,VALID,0.105969,VALID,24.4717,VALID,80,VALID,0,
2009-10-05, 01:47:04,VALID,1010.81,VALID,0,VALID,94.0179,VALID,0.105969,VALID,24.4522,VALID,80,VALID,0,
2009-10-05, 01:48:04,VALID,1010.76,VALID,0,VALID,94.0179,VALID,0.105969,VALID,24.4327,VALID,80,VALID,0,
2009-10-05, 01:49:04,VALID,1010.78,VALID,0,VALID,94.0332,VALID,0.105969,VALID,24.4327,VALID,80,VALID,0,
2009-10-05, 01:50:04,VALID,1010.76,VALID,0,VALID,94.0408,VALID,0.105969,VALID,24.4132,VALID,81,VALID,0,
2009-10-05, 01:51:04,VALID,1010.72,VALID,0,VALID,94.0484,VALID,0.105969,VALID,24.4132,VALID,84,VALID,0,
2009-10-05, 01:52:04,VALID,1010.74,VALID,0,VALID,94.0484,VALID,0.105969,VALID,24.3937,VALID,85,VALID,0,
2009-10-05, 01:53:04,VALID,1010.71,VALID,0,VALID,94.0637,VALID,0.105969,VALID,24.3937,VALID,92,VALID,0,
2009-10-05, 01:54:04,VALID,1010.72,VALID,0,VALID,94.0942,VALID,0,VALID,24.4132,VALID,92,VALID,0,
2009-10-05, 01:55:04,VALID,1010.67,VALID,0,VALID,94.0942,VALID,0.105969,VALID,24.4327,VALID,92,VALID,0,
2009-10-05, 01:56:04,VALID,1010.69,VALID,0,VALID,94.1094,VALID,0.105969,VALID,24.4132,VALID,92,VALID,0,
2009-10-05, 01:57:04,VALID,1010.68,VALID,0,VALID,94.1094,VALID,0.105969,VALID,24.4132,VALID,92,VALID,0,
2009-10-05, 01:58:04,VALID,1010.71,VALID,0,VALID,94.1094,VALID,0.105969,VALID,24.4132,VALID,92,VALID,0,
2009-10-05, 01:59:04,VALID,1010.72,VALID,0,VALID,94.1171,VALID,0.105969,VALID,24.3937,VALID,92,VALID,0,
2009-10-05, 02:00:04,VALID,1010.69,VALID,0,VALID,94.1247,VALID,0.105969,VALID,24.3937,VALID,79,VALID,0,
2009-10-05, 02:01:04,VALID,1010.69,VALID,0,VALID,94.1399,VALID,0.105969,VALID,24.3937,VALID,60,VALID,0.468359,
2009-10-05, 02:02:04,VALID,1010.66,VALID,0,VALID,94.1171,VALID,0.105969,VALID,24.3937,VALID,53,VALID,0.446875,
2009-10-05, 02:03:04,VALID,1010.68,VALID,0,VALID,94.1247,VALID,0.105969,VALID,24.3742,VALID,47,VALID,0.608594,
2009-10-05, 02:04:04,VALID,1010.65,VALID,0,VALID,94.1171,VALID,0.105969,VALID,24.3742,VALID,47,VALID,0.423828,
2009-10-05, 02:05:04,VALID,1010.62,VALID,0,VALID,94.1323,VALID,0.105969,VALID,24.3742,VALID,47,VALID,0.365234,
2009-10-05, 02:06:04,VALID,1010.6,VALID,0,VALID,94.1323,VALID,0.105969,VALID,24.3742,VALID,47,VALID,0.304297,
2009-10-05, 02:07:04,VALID,1010.63,VALID,0,VALID,94.1171,VALID,0.105969,VALID,24.3742,VALID,47,VALID,0.267188,
2009-10-05, 02:08:04,VALID,1010.62,VALID,0,VALID,94.1247,VALID,0.105969,VALID,24.3352,VALID,32,VALID,0.326172,
2009-10-05, 02:09:04,VALID,1010.6,VALID,0,VALID,94.1094,VALID,0,VALID,24.3158,VALID,32,VALID,0.44375,
2009-10-05, 02:10:04,VALID,1010.59,VALID,0,VALID,94.1247,VALID,0,VALID,24.3371,VALID,32,VALID,0.141406,
2009-10-05, 02:11:04,VALID,1010.59,VALID,0,VALID,94.1476,VALID,0,VALID,24.3176,VALID,32,VALID,0,
2009-10-05, 02:12:04,VALID,1010.6,VALID,0,VALID,94.1171,VALID,0,VALID,24.2981,VALID,32,VALID,0.0464844,
2009-10-05, 02:13:04,VALID,1010.61,VALID,0,VALID,94.1476,VALID,0,VALID,24.2981,VALID,32,VALID,0.245312,
2009-10-05, 02:14:04,VALID,1010.6,VALID,0,VALID,94.1399,VALID,0,VALID,24.2981,VALID,32,VALID,0.216406,
2009-10-05, 02:15:04,VALID,1010.59,VALID,0,VALID,94.1704,VALID,0,VALID,24.2786,VALID,32,VALID,0.174219,
2009-10-05, 02:16:04,VALID,1010.61,VALID,0,VALID,94.1552,VALID,0,VALID,24.2591,VALID,32,VALID,0.313281,
2009-10-05, 02:17:04,VALID,1010.63,VALID,0,VALID,94.1476,VALID,0,VALID,24.2591,VALID,32,VALID,0.10625,
2009-10-05, 02:18:04,VALID,1010.6,VALID,0,VALID,94.1857,VALID,0,VALID,24.2396,VALID,32,VALID,0.0175781,
2009-10-05, 02:19:04,VALID,1010.61,VALID,0,VALID,94.1857,VALID,0,VALID,24.2396,VALID,32,VALID,0,
2009-10-05, 02:20:04,VALID,1010.58,VALID,0,VALID,94.2162,VALID,0,VALID,24.2007,VALID,32,VALID,0,
2009-10-05, 02:21:04,VALID,1010.56,VALID,0,VALID,94.2314,VALID,0,VALID,24.2202,VALID,32,VALID,0,
2009-10-05, 02:22:04,VALID,1010.56,VALID,0,VALID,94.2162,VALID,0,VALID,24.2007,VALID,32,VALID,0,
2009-10-05, 02:23:04,VALID,1010.57,VALID,0,VALID,94.2238,VALID,0,VALID,24.222,VALID,32,VALID,0,
2009-10-05, 02:24:04,VALID,1010.58,VALID,0,VALID,94.2314,VALID,0,VALID,24.1812,VALID,32,VALID,0.383594,
2009-10-05, 02:25:04,VALID,1010.55,VALID,0,VALID,94.2391,VALID,0,VALID,24.1812,VALID,32,VALID,0.455469,
2009-10-05, 02:26:04,VALID,1010.55,VALID,0,VALID,94.2391,VALID,0,VALID,24.1812,VALID,35,VALID,0.499609,
2009-10-05, 02:27:04,VALID,1010.57,VALID,0,VALID,94.2543,VALID,0,VALID,24.1812,VALID,37,VALID,0.352734,
2009-10-05, 02:28:04,VALID,1010.58,VALID,0,VALID,94.2391,VALID,0,VALID,24.2025,VALID,37,VALID,0.428516,
2009-10-05, 02:29:04,VALID,1010.61,VALID,0,VALID,94.2391,VALID,0,VALID,24.2007,VALID,66,VALID,0.529297,
2009-10-05, 02:30:04,VALID,1010.61,VALID,0,VALID,94.2619,VALID,0,VALID,24.2007,VALID,67,VALID,0.548828,
2009-10-05, 02:31:04,VALID,1010.65,VALID,0,VALID,94.2619,VALID,0,VALID,24.2202,VALID,67,VALID,0.279297,
2009-10-05, 02:32:04,VALID,1010.68,VALID,0,VALID,94.2924,VALID,0,VALID,24.2202,VALID,65,VALID,0.298828,
2009-10-05, 02:33:04,VALID,1010.71,VALID,0,VALID,94.2696,VALID,0,VALID,24.2202,VALID,57,VALID,0.219141,
2009-10-05, 02:34:04,VALID,1010.71,VALID,0,VALID,94.2924,VALID,0,VALID,24.2202,VALID,13,VALID,0.590625,
2009-10-05, 02:35:04,VALID,1010.72,VALID,0,VALID,94.2848,VALID,0,VALID,24.1988,VALID,13,VALID,0.078125,
2009-10-05, 02:36:04,VALID,1010.68,VALID,0,VALID,94.2696,VALID,0,VALID,24.2202,VALID,13,VALID,0,
2009-10-05, 02:37:04,VALID,1010.71,VALID,0,VALID,94.2924,VALID,0,VALID,24.2202,VALID,13,VALID,0,
2009-10-05, 02:38:04,VALID,1010.73,VALID,0,VALID,94.2848,VALID,0,VALID,24.2202,VALID,13,VALID,0,
2009-10-05, 02:39:04,VALID,1010.71,VALID,0,VALID,94.2924,VALID,0,VALID,24.2007,VALID,13,VALID,0,
2009-10-05, 02:40:04,VALID,1010.71,VALID,0,VALID,94.3001,VALID,0,VALID,24.2007,VALID,13,VALID,0,
2009-10-05, 02:41:04,VALID,1010.75,VALID,0,VALID,94.2848,VALID,0,VALID,24.2007,VALID,13,VALID,0,
2009-10-05, 02:42:04,VALID,1010.73,VALID,0,VALID,94.2848,VALID,0,VALID,24.1812,VALID,13,VALID,0,
2009-10-05, 02:43:04,VALID,1010.74,VALID,0,VALID,94.3001,VALID,0,VALID,24.1812,VALID,13,VALID,0,
2009-10-05, 02:44:04,VALID,1010.75,VALID,0,VALID,94.2848,VALID,0,VALID,24.2025,VALID,13,VALID,0,
2009-10-05, 02:45:04,VALID,1010.8,VALID,0,VALID,94.2848,VALID,0,VALID,24.1617,VALID,63,VALID,0.358594,
2009-10-05, 02:46:04,VALID,1010.79,VALID,0,VALID,94.2924,VALID,0,VALID,24.1617,VALID,63,VALID,0.000390625,
2009-10-05, 02:47:04,VALID,1010.81,VALID,0,VALID,94.3001,VALID,0,VALID,24.1617,VALID,58,VALID,0.261719,
2009-10-05, 02:48:04,VALID,1010.82,VALID,0,VALID,94.2772,VALID,0,VALID,24.1617,VALID,47,VALID,0.210156,
2009-10-05, 02:49:04,VALID,1010.84,VALID,0,VALID,94.2619,VALID,0,VALID,24.2025,VALID,47,VALID,0,
2009-10-05, 02:50:04,VALID,1010.86,VALID,0,VALID,94.2848,VALID,0,VALID,24.183,VALID,302,VALID,0.253125,
2009-10-05, 02:51:04,VALID,1010.9,VALID,0,VALID,94.2924,VALID,0,VALID,24.2025,VALID,302,VALID,0.187891,
2009-10-05, 02:52:04,VALID,1010.89,VALID,0,VALID,94.2543,VALID,0,VALID,24.2415,VALID,302,VALID,0.296484,
2009-10-05, 02:53:04,VALID,1010.9,VALID,0,VALID,94.2772,VALID,0,VALID,24.261,VALID,301,VALID,0.115625,
2009-10-05, 02:54:04,VALID,1010.89,VALID,0,VALID,94.2848,VALID,0,VALID,24.2378,VALID,301,VALID,0,
2009-10-05, 02:55:04,VALID,1010.91,VALID,0,VALID,94.2772,VALID,0,VALID,24.2786,VALID,301,VALID,0.205859,
2009-10-05, 02:56:04,VALID,1010.92,VALID,0,VALID,94.2772,VALID,0.105969,VALID,24.2786,VALID,301,VALID,0,
2009-10-05, 02:57:04,VALID,1010.92,VALID,0,VALID,94.2772,VALID,0,VALID,24.2768,VALID,301,VALID,0,
2009-10-05, 02:58:04,VALID,1010.94,VALID,0,VALID,94.2696,VALID,0,VALID,24.2768,VALID,301,VALID,0,
2009-10-05, 02:59:04,VALID,1010.94,VALID,0,VALID,94.2848,VALID,0,VALID,24.2981,VALID,301,VALID,0,
2009-10-05, 03:00:04,VALID,1010.92,VALID,0,VALID,94.2619,VALID,0.105969,VALID,24.3158,VALID,301,VALID,0.260938,
2009-10-05, 03:01:04,VALID,1010.92,VALID,0,VALID,94.2772,VALID,0,VALID,24.3158,VALID,225,VALID,0.685547,
2009-10-05, 03:02:04,VALID,1010.89,VALID,0,VALID,94.2772,VALID,0,VALID,24.2963,VALID,210,VALID,0.724219,
2009-10-05, 03:03:04,VALID,1010.86,VALID,0,VALID,94.3001,VALID,0,VALID,24.3176,VALID,209,VALID,0.585156,
2009-10-05, 03:04:04,VALID,1010.88,VALID,0,VALID,94.2772,VALID,0,VALID,24.2768,VALID,201,VALID,0.61875,
2009-10-05, 03:05:04,VALID,1010.88,VALID,0,VALID,94.3001,VALID,0,VALID,24.2786,VALID,198,VALID,0.395703,
2009-10-05, 03:06:04,VALID,1010.88,VALID,0,VALID,94.2924,VALID,0,VALID,24.2573,VALID,198,VALID,0.143359,
2009-10-05, 03:07:04,VALID,1010.88,VALID,0,VALID,94.2924,VALID,0.105969,VALID,24.2573,VALID,198,VALID,0,
2009-10-05, 03:08:04,VALID,1010.92,VALID,0,VALID,94.2924,VALID,0.105969,VALID,24.2573,VALID,198,VALID,0.0679687,
2009-10-05, 03:09:04,VALID,1010.9,VALID,0,VALID,94.2772,VALID,0,VALID,24.2573,VALID,198,VALID,0.473828,
2009-10-05, 03:10:04,VALID,1010.91,VALID,0,VALID,94.2696,VALID,0,VALID,24.2573,VALID,198,VALID,0.306641,
2009-10-05, 03:11:04,VALID,1010.91,VALID,0,VALID,94.2772,VALID,0,VALID,24.2768,VALID,198,VALID,0.298438,
2009-10-05, 03:12:04,VALID,1010.92,VALID,0,VALID,94.2772,VALID,0.105969,VALID,24.2768,VALID,198,VALID,0.244141,
2009-10-05, 03:13:04,VALID,1010.92,VALID,0,VALID,94.2772,VALID,0,VALID,24.2768,VALID,198,VALID,0,
2009-10-05, 03:14:04,VALID,1010.92,VALID,0,VALID,94.2848,VALID,0.105969,VALID,24.2768,VALID,198,VALID,0,
2009-10-05, 03:15:04,VALID,1010.92,VALID,0,VALID,94.2696,VALID,0,VALID,24.2768,VALID,198,VALID,0,
2009-10-05, 03:16:04,VALID,1010.94,VALID,0,VALID,94.2924,VALID,0,VALID,24.2768,VALID,198,VALID,0,
2009-10-05, 03:17:04,VALID,1010.94,VALID,0,VALID,94.2924,VALID,0,VALID,24.2981,VALID,198,VALID,0.573828,
2009-10-05, 03:18:04,VALID,1010.95,VALID,0,VALID,94.2848,VALID,0,VALID,24.2768,VALID,198,VALID,0.519922,
2009-10-05, 03:19:04,VALID,1010.97,VALID,0,VALID,94.3001,VALID,0,VALID,24.2573,VALID,198,VALID,0.545313,
2009-10-05, 03:20:04,VALID,1010.93,VALID,0,VALID,94.3001,VALID,0,VALID,24.2786,VALID,198,VALID,0.498437,
2009-10-05, 03:21:04,VALID,1010.97,VALID,0,VALID,94.2924,VALID,0,VALID,24.2573,VALID,198,VALID,0.413672,
2009-10-05, 03:22:04,VALID,1010.97,VALID,0,VALID,94.3229,VALID,0,VALID,24.2202,VALID,198,VALID,0.469922,
2009-10-05, 03:23:04,VALID,1010.98,VALID,0,VALID,94.3229,VALID,0,VALID,24.1988,VALID,133,VALID,0.551172,
2009-10-05, 03:24:04,VALID,1011,VALID,0,VALID,94.3001,VALID,0,VALID,24.222,VALID,125,VALID,0.594531,
2009-10-05, 03:25:04,VALID,1010.99,VALID,0,VALID,94.2848,VALID,0,VALID,24.2202,VALID,106,VALID,0.901953,
2009-10-05, 03:26:04,VALID,1010.97,VALID,0,VALID,94.2772,VALID,0,VALID,24.2007,VALID,101,VALID,1.01953,
2009-10-05, 03:27:04,VALID,1010.97,VALID,0,VALID,94.2696,VALID,0,VALID,24.2396,VALID,101,VALID,0.944922,
2009-10-05, 03:28:04,VALID,1010.97,VALID,0,VALID,94.2543,VALID,0,VALID,24.2591,VALID,102,VALID,0.944141,
2009-10-05, 03:29:04,VALID,1010.94,VALID,0,VALID,94.2619,VALID,0,VALID,24.2591,VALID,101,VALID,0.946484,
2009-10-05, 03:30:04,VALID,1010.95,VALID,0,VALID,94.2848,VALID,0,VALID,24.2786,VALID,104,VALID,0.885156,
2009-10-05, 03:31:04,VALID,1010.91,VALID,0,VALID,94.2772,VALID,0,VALID,24.2786,VALID,111,VALID,0.746484,
2009-10-05, 03:32:04,VALID,1010.93,VALID,0,VALID,94.2848,VALID,0,VALID,24.2786,VALID,94,VALID,0.994141,
2009-10-05, 03:33:04,VALID,1010.91,VALID,0,VALID,94.2848,VALID,0,VALID,24.2981,VALID,92,VALID,1.59414,
2009-10-05, 03:34:04,VALID,1010.93,VALID,0,VALID,94.2543,VALID,0,VALID,24.2981,VALID,92,VALID,1.16172,
2009-10-05, 03:35:04,VALID,1010.93,VALID,0,VALID,94.2924,VALID,0,VALID,24.3194,VALID,92,VALID,0.772266,
2009-10-05, 03:36:04,VALID,1010.93,VALID,0,VALID,94.3153,VALID,0,VALID,24.3,VALID,90,VALID,0.832812,
2009-10-05, 03:37:04,VALID,1010.93,VALID,0,VALID,94.3001,VALID,0,VALID,24.3,VALID,80,VALID,1.11289,
2009-10-05, 03:38:04,VALID,1010.94,VALID,0,VALID,94.3153,VALID,0,VALID,24.2805,VALID,103,VALID,0.737891,
2009-10-05, 03:39:04,VALID,1010.93,VALID,0,VALID,94.3001,VALID,0.105969,VALID,24.2768,VALID,80,VALID,0.434375,
2009-10-05, 03:40:04,VALID,1010.93,VALID,0,VALID,94.3001,VALID,0.105969,VALID,24.2573,VALID,66,VALID,0.550391,
2009-10-05, 03:41:04,VALID,1010.9,VALID,0,VALID,94.3077,VALID,0.105969,VALID,24.2378,VALID,66,VALID,0.613672,
2009-10-05, 03:42:04,VALID,1010.91,VALID,0,VALID,94.3077,VALID,0.105969,VALID,24.2396,VALID,96,VALID,0.634766,
2009-10-05, 03:43:04,VALID,1010.92,VALID,0,VALID,94.2772,VALID,0.105969,VALID,24.2183,VALID,106,VALID,0.925781,
2009-10-05, 03:44:04,VALID,1010.93,VALID,0,VALID,94.3001,VALID,0.105969,VALID,24.1988,VALID,106,VALID,0.640234,
2009-10-05, 03:45:04,VALID,1010.96,VALID,0,VALID,94.2848,VALID,0,VALID,24.2202,VALID,106,VALID,0.527734,
2009-10-05, 03:46:04,VALID,1010.94,VALID,0,VALID,94.2848,VALID,0.105969,VALID,24.1793,VALID,106,VALID,0.535156,
2009-10-05, 03:47:04,VALID,1010.96,VALID,0,VALID,94.2772,VALID,0.105969,VALID,24.2007,VALID,106,VALID,0.333594,
2009-10-05, 03:48:04,VALID,1010.97,VALID,0,VALID,94.2772,VALID,0.105969,VALID,24.1793,VALID,106,VALID,0.412109,